| time (UTC) | temp F | wind direction | speed MPH | gust MPH | rain 1hr in | rain 24hr in | rain mn in | humidity % | barometer mb |
| 20260506043009 | 38 | 69 | 0.0 | 2.0 | 0.01 | 0.14 | 0.14 | 92 | 1011.8 |
| 20260506041508 | 38 | 70 | 0.0 | 1.0 | 0.01 | 0.14 | 0.14 | 92 | 1011.7 |
| 20260506040009 | 38 | 70 | 0.0 | 2.0 | 0.02 | 0.14 | 0.14 | 92 | 1011.7 |
| 20260506034506 | 38 | 69 | 0.0 | 1.0 | 0.02 | 0.14 | 0.14 | 92 | 1011.4 |
| 20260506033004 | 39 | 69 | 0.0 | 2.0 | 0.02 | 0.13 | 0.13 | 92 | 1011.2 |
| 20260506031600 | 39 | 66 | 0.0 | 2.0 | 0.02 | 0.13 | 0.13 | 91 | 1010.8 |
| 20260506030103 | 39 | 65 | 0.0 | 3.0 | 0.02 | 0.12 | 0.12 | 91 | 1010.3 |
| 20260506024610 | 39 | 65 | 0.0 | 3.0 | 0.03 | 0.12 | 0.12 | 91 | 1009.9 |
| 20260506023102 | 39 | 65 | 0.0 | 1.0 | 0.02 | 0.11 | 0.11 | 91 | 1009.9 |
| 20260506021557 | 39 | 65 | 0.0 | 2.0 | 0.03 | 0.11 | 0.11 | 90 | 1009.8 |
| 20260506020047 | 39 | 63 | 0.0 | 3.0 | 0.03 | 0.10 | 0.10 | 90 | 1009.0 |
| 20260506014545 | 39 | 61 | 0.0 | 3.0 | 0.03 | 0.09 | 0.09 | 90 | 1008.4 |
| 20260506013046 | 39 | 61 | 0.0 | 5.0 | 0.04 | 0.09 | 0.09 | 89 | 1008.3 |
| 20260506011607 | 39 | 65 | 0.0 | 2.0 | 0.04 | 0.08 | 0.08 | 89 | 1008.0 |
| 20260506010036 | 40 | 54 | 1.0 | 4.0 | 0.05 | 0.07 | 0.07 | 88 | 1006.3 |
| 20260506004541 | 41 | 42 | 1.0 | 3.0 | 0.05 | 0.06 | 0.06 | 87 | 1006.7 |
| 20260506003031 | 41 | 36 | 0.0 | 1.0 | 0.05 | 0.05 | 0.05 | 86 | 1007.1 |
| 20260506001530 | 42 | 36 | 0.0 | 1.0 | 0.03 | 0.03 | 0.03 | 84 | 1007.0 |
| 20260506000023 | 43 | 36 | 0.0 | 1.0 | 0.02 | 0.02 | 0.02 | 82 | 1006.3 |
| 20260505234521 | 44 | 35 | 0.0 | 1.0 | 0.01 | 0.01 | 0.01 | 80 | 1006.4 |
| 20260505233027 | 44 | 36 | 0.0 | 2.0 | 0.00 | 0.00 | 0.00 | 76 | 1006.2 |
| 20260505231520 | 45 | 36 | 0.0 | 1.0 | 0.00 | 0.00 | 0.00 | 73 | 1006.0 |
| 20260505230014 | 45 | 34 | 0.0 | 1.0 | 0.00 | 0.00 | 0.00 | 71 | 1005.8 |
| 20260505224513 | 46 | 34 | 0.0 | 2.0 | 0.00 | 0.00 | 0.00 | 70 | 1005.9 |
| 20260505223016 | 46 | 25 | 0.0 | 2.0 | 0.00 | 0.00 | 0.00 | 70 | 1006.0 |
| 20260505221511 | 46 | 12 | 0.0 | 2.0 | 0.00 | 0.00 | 0.00 | 69 | 1005.9 |
| 20260505220022 | 46 | 11 | 0.0 | 3.0 | 0.00 | 0.00 | 0.00 | 69 | 1006.0 |
| 20260505214517 | 47 | 5 | 0.0 | 2.0 | 0.00 | 0.00 | 0.00 | 69 | 1005.8 |
| 20260505213017 | 47 | 5 | 0.0 | 3.0 | 0.00 | 0.00 | 0.00 | 68 | 1005.8 |
| 20260505211508 | 48 | 337 | 0.0 | 2.0 | 0.00 | 0.00 | 0.00 | 67 | 1005.7 |
| 20260505210007 | 48 | 335 | 0.0 | 2.0 | 0.00 | 0.00 | 0.00 | 67 | 1005.9 |
| 20260505204506 | 49 | 327 | 0.0 | 3.0 | 0.00 | 0.00 | 0.00 | 65 | 1005.8 |
| 20260505203010 | 49 | 305 | 0.0 | 4.0 | 0.00 | 0.00 | 0.00 | 64 | 1005.8 |
| 20260505201505 | 50 | 112 | 0.0 | 2.0 | 0.00 | 0.00 | 0.00 | 64 | 1005.6 |
| 20260505200006 | 51 | 57 | 0.0 | 4.0 | 0.00 | 0.00 | 0.00 | 63 | 1005.6 |
| 20260505194508 | 50 | 68 | 0.0 | 3.0 | 0.00 | 0.00 | 0.00 | 64 | 1005.7 |
| 20260505193004 | 50 | 48 | 0.0 | 3.0 | 0.00 | 0.00 | 0.00 | 64 | 1005.9 |
| 20260505191503 | 50 | 69 | 0.0 | 3.0 | 0.00 | 0.00 | 0.00 | 66 | 1006.0 |
| 20260505190004 | 50 | 67 | 0.0 | 4.0 | 0.00 | 0.00 | 0.00 | 66 | 1006.0 |
| 20260505184503 | 49 | 82 | 0.0 | 3.0 | 0.00 | 0.00 | 0.00 | 69 | 1006.0 |
| 20260505183001 | 48 | 75 | 0.0 | 3.0 | 0.00 | 0.00 | 0.00 | 70 | 1006.0 |
| 20260505181615 | 47 | 76 | 0.0 | 3.0 | 0.00 | 0.00 | 0.00 | 72 | 1006.0 |
| 20260505180100 | 46 | 73 | 0.0 | 3.0 | 0.00 | 0.00 | 0.00 | 75 | 1006.4 |
| 20260505174558 | 46 | 73 | 0.0 | 3.0 | 0.00 | 0.00 | 0.00 | 74 | 1006.2 |
| 20260505173057 | 46 | 115 | 0.0 | 3.0 | 0.00 | 0.00 | 0.00 | 75 | 1006.0 |
| 20260505171556 | 47 | 82 | 0.0 | 3.0 | 0.00 | 0.00 | 0.00 | 75 | 1006.1 |
| 20260505170055 | 47 | 119 | 0.0 | 3.0 | 0.00 | 0.00 | 0.00 | 75 | 1006.0 |
| 20260505164601 | 47 | 79 | 0.0 | 4.0 | 0.00 | 0.00 | 0.00 | 74 | 1006.1 |
| 20260505163054 | 47 | 61 | 0.0 | 3.0 | 0.00 | 0.00 | 0.00 | 74 | 1005.9 |
| 20260505161557 | 47 | 72 | 0.0 | 3.0 | 0.00 | 0.00 | 0.00 | 75 | 1005.8 |
| 20260505153107 | 46 | 81 | 0.0 | 2.0 | 0.00 | 0.00 | 0.00 | 76 | 1005.9 |
| 20260505151550 | 46 | 81 | 0.0 | 5.0 | 0.00 | 0.00 | 0.00 | 75 | 1005.9 |
| 20260505124536 | 48 | 39 | 0.0 | 4.0 | 0.00 | 0.00 | 0.00 | 72 | 1003.9 |
| 20260505123029 | 48 | 82 | 0.0 | 2.0 | 0.00 | 0.00 | 0.00 | 72 | 1003.8 |
| 20260505121525 | 48 | 82 | 0.0 | 1.0 | 0.00 | 0.00 | 0.00 | 73 | 1003.4 |
| 20260505120031 | 48 | 80 | 0.0 | 1.0 | 0.00 | 0.00 | 0.00 | 73 | 1003.2 |
| 20260505114522 | 48 | 78 | 0.0 | 1.0 | 0.00 | 0.00 | 0.00 | 73 | 1002.6 |
| 20260505113020 | 48 | 78 | 0.0 | 2.0 | 0.00 | 0.00 | 0.00 | 72 | 1002.8 |
| 20260505111518 | 49 | 78 | 0.0 | 2.0 | 0.00 | 0.00 | 0.00 | 71 | 1002.4 |
| 20260505101513 | 50 | 79 | 0.0 | 1.0 | 0.00 | 0.00 | 0.00 | 64 | 1002.8 |
| 20260505100012 | 50 | 79 | 0.0 | 1.0 | 0.00 | 0.00 | 0.00 | 66 | 1002.7 |
| 20260505094513 | 49 | 79 | 0.0 | 0.0 | 0.00 | 0.00 | 0.00 | 66 | 1002.9 |
| 20260505093010 | 50 | 79 | 0.0 | 0.0 | 0.00 | 0.00 | 0.00 | 68 | 1003.0 |
| 20260505091507 | 50 | 79 | 0.0 | 0.0 | 0.00 | 0.00 | 0.00 | 67 | 1002.7 |
| 20260505090005 | 51 | 79 | 0.0 | 0.0 | 0.00 | 0.00 | 0.00 | 65 | 1002.6 |
| 20260505084505 | 51 | 79 | 0.0 | 0.0 | 0.00 | 0.00 | 0.00 | 64 | 1002.7 |
| 20260505083104 | 52 | 79 | 0.0 | 0.0 | 0.00 | 0.00 | 0.00 | 63 | 1002.8 |
| 20260505081557 | 53 | 79 | 0.0 | 0.0 | 0.00 | 0.00 | 0.00 | 61 | 1002.7 |
| 20260505080108 | 53 | 79 | 0.0 | 0.0 | 2.71 | 0.00 | 0.00 | 59 | 1002.7 |
| 20260505074550 | 54 | 79 | 0.0 | 0.0 | 0.00 | 0.00 | 0.00 | 61 | 1002.5 |
| 20260505073049 | 55 | 79 | 0.0 | 1.0 | 0.00 | 0.00 | 0.00 | 55 | 1002.5 |
| 20260505071547 | 55 | 80 | 0.0 | 2.0 | 0.00 | 0.00 | 0.00 | 54 | 1002.4 |
| 20260505070048 | 55 | 80 | 0.0 | 2.0 | 0.00 | 0.00 | 0.00 | 56 | 1001.7 |
| 20260505064548 | 55 | 74 | 0.0 | 5.0 | 0.00 | 0.00 | 0.00 | 58 | 1002.1 |
| 20260505063044 | 55 | 67 | 0.0 | 5.0 | 0.00 | 0.00 | 0.00 | 59 | 1002.0 |
| 20260505061540 | 55 | 69 | 0.0 | 5.0 | 0.00 | 0.00 | 0.00 | 60 | 1001.8 |
| 20260505060039 | 56 | 63 | 1.0 | 7.0 | 0.00 | 0.00 | 0.00 | 61 | 1002.1 |
| 20260505054537 | 56 | 57 | 1.0 | 5.0 | 0.00 | 0.00 | 0.00 | 62 | 1001.7 |
| 20260505053104 | 56 | 67 | 1.0 | 6.0 | 0.00 | 0.00 | 0.00 | 62 | 1001.6 |
| 20260505051536 | 56 | 52 | 0.0 | 5.0 | 0.00 | 0.00 | 0.00 | 62 | 1001.6 |